Location: Carrières
(48.9495°N, 2.0407°E)
Time: 21:13:56
(UTC+00:00)

Transit 2A Rocket - Pass Details

Date: 27 April 2024
Orbit: 585 x 908 km, 66.7° (Epoch: 18 May)

Event Time Altitude Azimuth Distance (km) Brightness Sun altitude
Rises 20:12:51 0° 308° (NW) 3,382 10.6 -10.8°
Reaches altitude 10° 20:16:48 10° 281° (W) 2,505 8.7 -11.4°
Maximum altitude 20:19:07 13° 257° (WSW) 2,353 8.1 -11.7°
Drops below altitude 10° 20:21:28 10° 234° (SW) 2,552 7.9 -12.0°
Sets 20:25:37 0° 206° (SSW) 3,516 8.3 -12.5°
